Location: Alando
(42.3054°N, 9.2895°E)
Time: 19:28:37
(UTC+00:00)

STARLINK-1192 - Pass Details

Date: 09 April 2020
Orbit: 549 x 550 km, 53.0° (Epoch: 26 May)

Event Time Altitude Azimuth Distance (km) Brightness Sun altitude
Rises 19:35:39 0° 308° (NW) 2,732 8.8 -17.7°
Reaches altitude 10° 19:38:02 10° 318° (NW) 1,836 7.4 -18.1°
Maximum altitude 19:41:54 35° 25° (NNE) 897 4.7 -18.7°
Enters shadow 19:43:12 28° 63° (ENE) 1,044 4.7 -18.9°
